TimeEST,TemperatureF,Dew PointF,Humidity,Sea Level PressureIn,VisibilityMPH,Wind Direction,Wind SpeedMPH,Gust SpeedMPH,PrecipitationIn,Events,Conditions,WindDirDegrees,DateUTC
12:52 AM,39.0,39.0,100,30.07,3.0,NE,6.9,-,N/A,,Overcast,50,2012-02-05 05:52:00
1:52 AM,39.0,37.9,96,30.06,6.0,NE,8.1,-,N/A,,Overcast,50,2012-02-05 06:52:00
2:52 AM,39.0,37.0,93,30.08,6.0,NNE,10.4,-,N/A,,Overcast,30,2012-02-05 07:52:00
3:52 AM,37.9,36.0,93,30.09,6.0,North,9.2,-,N/A,,Overcast,10,2012-02-05 08:52:00
4:52 AM,37.9,36.0,93,30.10,6.0,NNE,10.4,-,N/A,,Overcast,20,2012-02-05 09:52:00
5:50 AM,37.4,35.6,93,30.11,2.5,North,11.5,-,0.00,Rain,Light Rain,10,2012-02-05 10:50:00
5:52 AM,37.0,36.0,96,30.13,2.5,NNE,13.8,-,0.00,Rain,Light Rain,20,2012-02-05 10:52:00
6:18 AM,37.4,35.6,93,30.12,3.0,North,10.4,-,0.00,,Overcast,10,2012-02-05 11:18:00
6:52 AM,37.0,35.1,93,30.14,4.0,NNE,8.1,-,0.00,,Overcast,30,2012-02-05 11:52:00
7:52 AM,37.0,35.1,93,30.16,5.0,NNE,9.2,-,N/A,,Overcast,20,2012-02-05 12:52:00
8:52 AM,37.0,34.0,89,30.19,5.0,NE,6.9,-,N/A,,Mostly Cloudy,50,2012-02-05 13:52:00
9:52 AM,37.9,34.0,86,30.20,6.0,NNE,9.2,-,N/A,,Mostly Cloudy,30,2012-02-05 14:52:00
10:52 AM,42.1,35.1,76,30.22,6.0,NE,11.5,-,N/A,,Haze,50,2012-02-05 15:52:00
11:52 AM,42.1,34.0,73,30.23,7.0,East,8.1,-,N/A,,Scattered Clouds,80,2012-02-05 16:52:00
12:52 PM,43.0,32.0,65,30.21,8.0,ENE,9.2,-,N/A,,Partly Cloudy,60,2012-02-05 17:52:00
1:52 PM,46.0,30.9,56,30.20,9.0,Variable,5.8,-,N/A,,Partly Cloudy,0,2012-02-05 18:52:00
2:52 PM,46.9,28.9,50,30.20,10.0,NE,4.6,-,N/A,,Partly Cloudy,50,2012-02-05 19:52:00
3:52 PM,46.0,27.0,47,30.22,10.0,SSE,3.5,-,N/A,,Partly Cloudy,150,2012-02-05 20:52:00
4:52 PM,48.0,25.0,41,30.21,10.0,Calm,Calm,-,N/A,,Clear,0,2012-02-05 21:52:00
5:52 PM,45.0,24.1,44,30.23,10.0,North,3.5,-,N/A,,Partly Cloudy,360,2012-02-05 22:52:00
6:52 PM,41.0,27.0,57,30.25,10.0,NNW,6.9,-,N/A,,Partly Cloudy,340,2012-02-05 23:52:00
7:52 PM,39.0,27.0,62,30.26,10.0,North,3.5,-,N/A,,Clear,10,2012-02-06 00:52:00
8:52 PM,37.9,26.1,62,30.26,10.0,Calm,Calm,-,N/A,,Clear,0,2012-02-06 01:52:00
9:52 PM,36.0,25.0,64,30.25,10.0,North,5.8,-,N/A,,Clear,10,2012-02-06 02:52:00
10:52 PM,34.0,25.0,70,30.25,10.0,North,5.8,-,N/A,,Clear,10,2012-02-06 03:52:00
11:52 PM,33.8,24.8,70,30.23,10.0,NNE,3.5,-,N/A,,Clear,30,2012-02-06 04:52:00